Regional Weather Roundup
Issued by NWS Charleston, WV

Home | Current Version | Previous Version | Text Only | Print | Product List | Glossary On
Versions: 1 2 3 4 5 6 7 8 9 10 11 12 13 14 15 16 17 18 19 20 21 22 23 24 25 26 27
000
ASUS41 KRLX 181110
RWRRLX
West Virginia Regional Weather Roundup
National Weather Service Charleston WV
600 AM EST MON DEC 18 2017

Note: "fair" indicates few or no clouds below 12,000 feet with no
significant weather and/or obstructions to visibility.

WVZ003-181200-
Northern Panhandle of West Virginia

CITY           SKY/WX    TMP DP  RH WIND       PRES   REMARKS
WHEELING       CLOUDY    38  34  85 S6        30.07S
$$

WVZ009-181200-
Northwest West Virginia

CITY           SKY/WX    TMP DP  RH WIND       PRES   REMARKS
PARKERSBURG    CLOUDY    41  36  82 SW6       30.14R
$$

WVZ006-181200-
Western West Virginia

CITY           SKY/WX    TMP DP  RH WIND       PRES   REMARKS
HUNTINGTON     CLOUDY    42  39  89 SW6       30.12S
$$

WVZ015-181200-
West Central West Virginia

CITY           SKY/WX    TMP DP  RH WIND       PRES   REMARKS
CHARLESTON     FOG       40  39  97 CALM      30.12S VSB 1
$$

WVZ022-031-181200-
North Central West Virginia

CITY           SKY/WX    TMP DP  RH WIND       PRES   REMARKS
CLARKSBURG     CLOUDY    40  38  93 SW3       30.11R FOG
MORGANTOWN     CLOUDY    40  35  83 SW5       30.10R
$$

WVZ025-035-042-045-181200-
Southern West Virginia

CITY           SKY/WX    TMP DP  RH WIND       PRES   REMARKS
BECKLEY        CLOUDY    38  38 100 SW5       30.10S FOG
LOGAN          FOG       41  41 100 CALM      30.12S VSB<1/4
BLUEFIELD      FOG       39  38  96 W8        30.12R VSB 1/2
LEWISBURG      CLOUDY    37  37  98 CALM      30.12S FOG
$$

WVZ047-181200-
Northern Mountains of West Virginia

CITY           SKY/WX    TMP DP  RH WIND       PRES   REMARKS
ELKINS         CLOUDY    37  35  92 CALM      30.09S FOG
$$

WVZ052-181200-
Eastern Panhandle of West Virginia

CITY           SKY/WX    TMP DP  RH WIND       PRES   REMARKS
MARTINSBURG    CLOUDY    36  31  82 CALM      30.10S
PETERSBURG     CLOUDY    36  34  92 CALM      30.10S
$$




USA.gov is the U.S. government's official web portal to all federal, state and local government web resources and services.